Regional Weather Roundup
Issued by NWS

Home | Current Version | Previous Version | Text Only | Print | Product List | Glossary Off
Versions: 1 2 3 4 5 6 7 8 9 10 11 12 13 14 15 16 17 18 19 20 21 22 23 24 25 26 27 28 29 30 31 32 33 34 35 36 37 38 39 40 41 42 43 44 45 46 47 48 49 50

000
ASUS43 KOAX 221202
RWRNE

WEATHER ROUNDUP FOR NEBRASKA
NATIONAL WEATHER SERVICE OMAHA NE
700 AM CDT WED OCT 22 2014

NOTES: SATELLITE DATA IS BEING USED TO AUGMENT CLOUD COVER ABOVE
       12000 FEET.
       "FAIR" INDICATES FEW OR NO CLOUDS BELOW 12,000 FEET WITH NO
       SIGNIFICANT WEATHER AND/OR OBSTRUCTIONS TO VISIBILITY.

  * THESE STATIONS DO NOT REPORT WEATHER SUCH AS RAIN...SNOW OR FOG.

NEZ001>004-019>022-054>056-221300-
NEBRASKA PANHANDLE

CITY           SKY/WX    TMP DP  RH WIND       PRES   REMARKS
SCOTTSBLUFF    CLOUDY    50  47  89 NW7       29.97R
6HR MIN TEMP:  50; 6HR MAX TEMP:  62; 6HR PCP:  0.11;

ALLIANCE       CLOUDY    52  50  93 CALM      29.96S
6HR MIN TEMP:  45; 6HR MAX TEMP:  56; 6HR PCP:  0.02;

CHADRON        CLOUDY    57  42  57 NW12      29.93R
6HR MIN TEMP:  55; 6HR MAX TEMP:  67; 6HR PCP:  0.01;

KIMBALL        MOCLDY    47  44  90 NW5       30.01R
SIDNEY         LGT RAIN  52  49  89 CALM      30.00R
6HR MIN TEMP:  52; 6HR MAX TEMP:  59; 6HR PCP:  0.02;

$$

NEZ057>060-069>072-079>082-221300-
SOUTHWEST NEBRASKA

CITY           SKY/WX    TMP DP  RH WIND       PRES   REMARKS
NORTH PLATTE   MOCLDY    58  49  72 SE5       29.94R
6HR MIN TEMP:  58; 6HR MAX TEMP:  63;

IMPERIAL       MOCLDY    54  45  71 N7        29.95R
6HR MIN TEMP:  52; 6HR MAX TEMP:  61;

LEXINGTON      MOCLDY    59  52  79 S10       29.95R
MCCOOK         MOCLDY    57  49  74 W3        29.95R
6HR MIN TEMP:  57; 6HR MAX TEMP:  63;

OGALLALA       CLOUDY    52  47  83 CALM      29.95S
$$

NEZ005>010-023>029-035>040-094-221300-
NORTH CENTRAL NEBRASKA

CITY           SKY/WX    TMP DP  RH WIND       PRES   REMARKS
VALENTINE      CLOUDY    58  51  78 S10       29.87F
6HR MIN TEMP:  58; 6HR MAX TEMP:  63; 6HR PCP: TRACE;

AINSWORTH      RAIN      58  52  80 S10       29.91R
BROKEN BOW     CLOUDY    57  53  86 SE8       29.94S
6HR MIN TEMP:  56; 6HR MAX TEMP:  60;

O`NEILL        MOCLDY    57  54  88 S13G20    29.93S
ORD            CLOUDY    54  52  93 SE6       29.95R
6HR MIN TEMP:  53; 6HR MAX TEMP:  57;

THEDFORD       CLOUDY    60  51  71 SW8       29.93R
$$

NEZ041-046>049-061>064-073>077-083>087-221300-
SOUTH CENTRAL NEBRASKA

CITY           SKY/WX    TMP DP  RH WIND       PRES   REMARKS
GRAND ISLAND   PTCLDY    57  53  86 S14       30.00R
6HR MIN TEMP:  57; 6HR MAX TEMP:  60;

AURORA         CLEAR     54  51  91 SE12      30.01S
HASTINGS       CLEAR     56  52  86 S12       30.00S
6HR MIN TEMP:  56; 6HR MAX TEMP:  60;

HEBRON         CLEAR     55  50  83 SE12      30.05S
HOLDREGE       MOCLDY    55  52  89 SE10      29.97F
KEARNEY *      PTCLDY    55  52  88 SE13      29.98S
YORK           CLEAR     55  48  76 S14       30.03S
$$

NEZ011>018-030>034-042>045-221300-
NORTHEAST NEBRASKA

CITY           SKY/WX    TMP DP  RH WIND       PRES   REMARKS
NORFOLK        CLEAR     55  44  66 SE18      30.01S
6HR MIN TEMP:  55; 6HR MAX TEMP:  59;

ALBION         CLEAR     53  47  81 SE10      30.00R
BLAIR          CLEAR     56  44  65 SE14      30.08S
COLUMBUS *     CLEAR     55  43  62 SE13G18   30.04S
FREMONT        CLEAR     55  45  68 SE15      30.06F
TEKAMAH        CLEAR     53  44  71 SE10      30.08S
6HR MIN TEMP:  53; 6HR MAX TEMP:  57;

WAYNE          CLEAR     54  45  71 S20       30.02F
$$

NEZ050>053-065>068-078-088>093-221300-
SOUTHEAST NEBRASKA

CITY           SKY/WX    TMP DP  RH WIND       PRES   REMARKS
LINCOLN        CLEAR     54  44  69 S12       30.08S
6HR MIN TEMP:  54; 6HR MAX TEMP:  61;

OMAHA EPPLEY   PTCLDY    55  44  66 SE16      30.11S
6HR MIN TEMP:  54; 6HR MAX TEMP:  57;

BEATRICE       CLEAR     54  45  70 SE12      30.08S
FALLS CITY     PTCLDY    51  45  79 SE6       30.13R
6HR MIN TEMP:  51; 6HR MAX TEMP:  56;

NEBRASKA CITY  CLEAR     52  41  66 SE9       30.12S
PLATTSMOUTH    CLEAR     53  43  69 SE13      30.10F
$$

NEZ044-045-051>053-067-221300-
OMAHA AREA

CITY           SKY/WX    TMP DP  RH WIND       PRES   REMARKS
OMAHA EPPLEY   PTCLDY    55  44  66 SE16      30.11S
6HR MIN TEMP:  54; 6HR MAX TEMP:  57;

BLAIR          CLEAR     56  44  65 SE14      30.08S
FREMONT        CLEAR     55  45  68 SE15      30.06F
OFFUTT AFB     CLEAR     53  49  87 E13       30.11S
PLATTSMOUTH    CLEAR     53  43  69 SE13      30.10F
WAHOO          FAIR      52  44  72 SE12      30.08R
$$



USA.gov is the U.S. government's official web portal to all federal, state and local government web resources and services.